Regional Weather Roundup
Issued by NWS Northern Indiana

Home | Current Version | Previous Version | Graphics & Text | Print | Product List | Glossary On
Versions: 1 2 3 4 5 6 7 8 9 10 11 12 13 14 15 16 17 18 19 20 21 22 23 24 25 26 27 28 29 30 31 32 33 34 35 36 37 38 39 40 41 42 43 44 45 46 47 48 49 50
565
ASUS43 KIWX 281500
RWRIWX

KIWX WEATHER ROUNDUP
NATIONAL WEATHER SERVICE NORTHERN INDIANA
1100 AM EDT WED JUN 28 2017

NOTE: "FAIR" INDICATES FEW OR NO CLOUDS BELOW 12,000 FEET WITH NO
SIGNIFICANT WEATHER AND/OR OBSTRUCTIONS TO VISIBILITY.

* THESE STATIONS ARE NOT UNDER NWS QUALITY CONTROL. THEY ALSO MAY NOT
  REPORT WEATHER SUCH AS PRECIPITATION OR FOG.

INZ001>027-281600-
NORTHERN INDIANA

CITY           SKY/WX    TMP DP  RH WIND       PRES   REMARKS
GARY*          CLOUDY    70  50  49 S9G23     30.03S
MICHIGAN CITY* CLOUDY    70  52  52 S8G18     30.05S
KNOX*          PTSUNNY   70  41  35 S15       30.07S
SOUTH BEND     CLOUDY    70  52  52 S14       30.08S
ELKHART*       PTSUNNY   70  50  49 S12G17    30.08F
GOSHEN         CLOUDY    71  49  45 S16       30.09F
MONTICELLO*    PTSUNNY   70  53  56 S10G17    30.08R
FORT WAYNE     CLOUDY    71  51  49 SW13      30.13R
PERU/GRISSOM   MOSUNNY   72  54  53 S14       30.10F

$$
INZ028>050-281600-
CENTRAL INDIANA

CITY           SKY/WX    TMP DP  RH WIND       PRES   REMARKS
LAFAYETTE      CLOUDY    70  55  59 S10G17    30.08F
KOKOMO*        MOSUNNY   72  53  51 S16       30.12F
MUNCIE*        CLOUDY    73  51  46 S13       30.13F
INDIANAPOLIS   CLOUDY    72  54  53 S12       30.12F

$$
MIZ043>046-050>051-056>058-064>065-071>073-077>080-281600-
SOUTHWEST LOWER MICHIGAN

CITY           SKY/WX    TMP DP  RH WIND       PRES   REMARKS
BATTLE CREEK   CLOUDY    73  48  41 SW18      30.09S
BENTON HARBOR  CLOUDY    71  50  47 S12G20    30.04F
HOLLAND        CLOUDY    72  51  47 S17G24    30.04F
GRAND RAPIDS   CLOUDY    71  52  50 S14       30.05F
KALAMAZOO      CLOUDY    72  48  42 S15       30.08S

$$
OHZ001>008-015>018-024>025-281600-
NORTHWEST OHIO

CITY           SKY/WX    TMP DP  RH WIND       PRES   REMARKS
DEFIANCE       SUNNY     71  50  47 S12G21    30.11F
FINDLAY        SUNNY     73  47  39 S12G20    30.13S
TOLEDO EXPRESS SUNNY     72  52  49 SW8       30.11F
TOLEDO METCALF SUNNY     74  48  39 SW12      30.12F
LIMA           SUNNY     71  50  47 S15       30.14F

$$
AND FOR LAKE MICHIGAN COASTAL AND OPEN LAKE BUOY OBSERVATIONS

STATION/POSITION TEMP    WIND        PRES    VSBY  WAVE
                 AIR SEA DIR/SP/G                  HT/PER
                 (F)     (DEG/KT/KT) (MB)    (MI)  (FT/S)
CALUMET HARBOR    69     160/ 12/ 20 1015.7F
MICHIGAN CITY     68     160/ 15/ 19   N/A
BURNS HARBOR      70     180/ 11/ 19 1017.3F
SOUTH LAKE BUOY   64 61  160/ 17/ 21 1015.8          3/ 4
4 MI NW BRIDGMAN  68 68  190/ 16/ 19 1017.3F         2/ 3
MICHIGAN CITY     68 66  190/ 16/ 19   N/A           2/ 3

$$
&&




USA.gov is the U.S. government's official web portal to all federal, state and local government web resources and services.